Time,TemperatureF,DewpointF,PressureIn,WindDirection,WindDirectionDegrees,WindSpeedMPH,WindSpeedGustMPH,Humidity,HourlyPrecipIn,Conditions,Clouds,dailyrainin,SoftwareType,DateUTC
2013-09-14 00:14:00,62.0,54.0,30.02,SW,226,0.0,1.0,76,0.00,,,0.00,,2013-09-14 04:14:00,
2013-09-14 00:24:00,62.0,54.0,30.02,SW,226,0.0,1.0,76,0.00,,,0.00,,2013-09-14 04:24:00,
2013-09-14 00:54:00,60.0,53.0,30.02,SW,226,0.0,0.0,77,0.00,,,0.00,,2013-09-14 04:54:00,
2013-09-14 01:22:00,59.0,53.0,30.02,SW,226,0.0,0.0,80,0.00,,,0.00,,2013-09-14 05:22:00,
2013-09-14 01:53:00,59.0,54.0,30.01,SW,226,0.0,0.0,82,0.00,,,0.00,,2013-09-14 05:53:00,
2013-09-14 02:12:00,58.0,53.0,30.01,SW,226,0.0,0.0,82,0.00,,,0.00,,2013-09-14 06:12:00,
2013-09-14 02:22:00,58.0,53.0,30.01,SW,226,0.0,0.0,82,0.00,,,0.00,,2013-09-14 06:22:00,
2013-09-14 02:32:00,58.0,52.0,30.01,WSW,252,0.0,2.0,81,0.00,,,0.00,,2013-09-14 06:32:00,
2013-09-14 02:52:00,58.0,52.0,30.01,WSW,252,0.0,2.0,81,0.00,,,0.00,,2013-09-14 06:52:00,
2013-09-14 03:02:00,58.0,52.0,30.01,WSW,252,0.0,2.0,81,0.00,,,0.00,,2013-09-14 07:02:00,
2013-09-14 03:12:00,58.0,52.0,30.01,WSW,252,0.0,2.0,81,0.00,,,0.00,,2013-09-14 07:12:00,
2013-09-14 03:22:00,58.0,52.0,30.01,WSW,252,0.0,2.0,81,0.00,,,0.00,,2013-09-14 07:22:00,
2013-09-14 11:22:00,62.0,55.0,30.09,NNW,335,0.0,1.0,78,0.00,,,0.00,,2013-09-14 15:22:00,
2013-09-14 11:33:00,62.0,55.0,30.09,NNW,335,0.0,1.0,78,0.00,,,0.00,,2013-09-14 15:33:00,
2013-09-14 11:53:00,64.0,55.0,30.09,WNW,298,0.0,2.0,73,0.00,,,0.00,,2013-09-14 15:53:00,
2013-09-14 12:23:00,67.0,56.0,30.10,WNW,302,0.0,1.0,68,0.00,,,0.00,,2013-09-14 16:23:00,
2013-09-14 12:54:00,70.0,57.0,30.09,West,263,1.0,2.0,64,0.00,,,0.00,,2013-09-14 16:54:00,
2013-09-14 13:24:00,73.0,57.0,30.08,WNW,298,0.0,2.0,58,0.00,,,0.00,,2013-09-14 17:24:00,
2013-09-14 13:54:00,75.0,57.0,30.08,NW,307,0.0,3.0,53,0.00,,,0.00,,2013-09-14 17:54:00,
2013-09-14 14:12:00,75.0,56.0,30.07,NW,306,0.0,2.0,52,0.00,,,0.00,,2013-09-14 18:12:00,
2013-09-14 14:22:00,76.0,59.0,30.07,WNW,290,0.0,3.0,55,0.00,,,0.00,,2013-09-14 18:22:00,
2013-09-14 14:52:00,77.0,57.0,30.07,West,270,1.0,3.0,50,0.00,,,0.00,,2013-09-14 18:52:00,
2013-09-14 15:11:00,77.0,57.0,30.06,SSW,195,1.0,3.0,51,0.00,,,0.00,,2013-09-14 19:11:00,
2013-09-14 15:22:00,79.0,56.0,30.06,WSW,251,0.0,3.0,46,0.00,,,0.00,,2013-09-14 19:22:00,
2013-09-14 15:52:00,81.0,58.0,30.06,NW,304,0.0,3.0,46,0.00,,,0.00,,2013-09-14 19:52:00,
2013-09-14 16:22:00,81.0,57.0,30.05,SW,234,0.0,1.0,44,0.00,,,0.00,,2013-09-14 20:22:00,
2013-09-14 16:52:00,81.0,59.0,30.05,SW,217,0.0,3.0,48,0.00,,,0.00,,2013-09-14 20:52:00,
2013-09-14 17:22:00,82.0,58.0,30.04,WNW,303,0.0,2.0,44,0.00,,,0.00,,2013-09-14 21:22:00,
2013-09-14 17:54:00,82.0,57.0,30.05,WNW,303,0.0,2.0,43,0.00,,,0.00,,2013-09-14 21:54:00,
2013-09-14 18:24:00,81.0,58.0,30.06,West,277,0.0,1.0,45,0.00,,,0.00,,2013-09-14 22:24:00,
2013-09-14 18:53:00,81.0,58.0,30.06,West,277,0.0,0.0,45,0.00,,,0.00,,2013-09-14 22:53:00,
2013-09-14 19:23:00,78.0,58.0,30.06,West,277,0.0,0.0,51,0.00,,,0.00,,2013-09-14 23:23:00,
2013-09-14 19:53:00,76.0,59.0,30.07,West,277,0.0,0.0,55,0.00,,,0.00,,2013-09-14 23:53:00,
2013-09-14 20:22:00,73.0,56.0,30.07,West,277,0.0,0.0,55,0.00,,,0.00,,2013-09-15 00:22:00,
2013-09-14 20:53:00,71.0,56.0,30.08,West,278,0.0,0.0,59,0.00,,,0.00,,2013-09-15 00:53:00,
2013-09-14 21:11:00,70.0,57.0,30.08,West,277,0.0,0.0,63,0.00,,,0.00,,2013-09-15 01:11:00,
2013-09-14 21:22:00,69.0,56.0,30.09,West,277,0.0,0.0,63,0.00,,,0.00,,2013-09-15 01:22:00,
2013-09-14 21:52:00,67.0,56.0,30.10,West,277,0.0,0.0,69,0.00,,,0.00,,2013-09-15 01:52:00,
2013-09-14 22:22:00,65.0,56.0,30.10,West,278,0.0,0.0,72,0.00,,,0.00,,2013-09-15 02:22:00,
2013-09-14 22:42:00,65.0,57.0,30.10,West,277,0.0,0.0,75,0.00,,,0.00,,2013-09-15 02:42:00,
2013-09-14 22:52:00,64.0,57.0,30.10,West,277,0.0,0.0,78,0.00,,,0.00,,2013-09-15 02:52:00,
2013-09-14 23:22:00,62.0,56.0,30.11,West,278,0.0,0.0,81,0.00,,,0.00,,2013-09-15 03:22:00,
2013-09-14 23:55:00,61.0,56.0,30.11,West,277,0.0,0.0,83,0.00,,,0.00,,2013-09-15 03:55:00,